Location: Unspecified
(0.0000°N, 0.0000°E)
Time: 03:06:03
(UTC+01:00)

Tiros 1 despin weight - All Passes

Search period start: 23 February 2018 00:00
Search period end: 05 March 2018 00:00
Orbit: 595 x 643 km, 48.2° (Epoch: 21 February)

Date Brightness Start Highest point End Pass type
(mag) Time Alt. Az. Time Alt. Az. Time Alt. Az.
23 Feb - 03:24:37 10° NNW 03:28:45 38° NE 03:32:55 10° ESE night (unlit)
23 Feb - 05:07:35 10° W 05:10:10 15° SW 05:12:47 10° SSW visible
23 Feb - 15:32:42 10° SSW 15:37:21 67° SE 15:41:55 10° NE daylight
24 Feb - 03:41:06 10° NW 03:45:31 73° SW 03:49:59 10° SSE night (unlit)
24 Feb - 14:10:03 10° SSE 14:12:39 15° SE 14:15:13 10° E daylight
24 Feb - 15:49:42 10° WSW 15:54:07 43° NW 15:58:29 10° NNE daylight
25 Feb - 02:17:31 10° N 02:20:56 22° NE 02:24:22 10° ESE night (unlit)
25 Feb - 03:58:37 10° WNW 04:02:18 26° SW 04:06:03 10° S night (unlit)
25 Feb - 14:25:10 10° SSW 14:29:30 37° SE 14:33:47 10° ENE daylight
25 Feb - 16:07:59 10° W 16:10:55 17° NW 16:13:50 10° N daylight
26 Feb - 02:33:21 10° NNW 02:37:42 61° NE 02:42:07 10° SE night (unlit)
26 Feb - 14:41:37 10° SW 14:46:17 78° NW 14:50:53 10° NE daylight
27 Feb - 01:11:11 10° NNE 01:13:05 12° NE 01:14:59 10° ENE night (unlit)
27 Feb - 02:50:16 10° WNW 02:54:29 45° SW 02:58:46 10° SSE night (unlit)
27 Feb - 13:18:00 10° S 13:21:37 22° SE 13:25:14 10° E daylight
27 Feb - 14:59:04 10° WSW 15:03:04 28° NW 15:07:01 10° N daylight
28 Feb - 01:25:55 10° NNW 01:29:54 33° NE 01:33:55 10° ESE night (unlit)
28 Feb - 03:08:27 10° W 03:11:18 17° SW 03:14:12 10° S night (unlit)
28 Feb - 13:33:49 10° SSW 13:38:26 59° SE 13:43:01 10° NE daylight
28 Feb - 15:18:48 10° WNW 15:19:54 11° NW 15:21:01 10° NW daylight
01 Mar - 01:42:16 10° NW 01:46:40 83° SW 01:51:08 10° SE night (unlit)
01 Mar - 12:11:33 10° SSE 12:13:44 13° SE 12:15:54 10° ESE daylight
01 Mar - 13:50:41 10° SW 13:55:13 49° NW 13:59:42 10° NNE daylight
02 Mar - 00:18:55 10° N 00:22:05 19° NE 00:25:15 10° E night (unlit)
02 Mar - 01:59:39 10° WNW 02:03:27 28° SW 02:07:19 10° S night (unlit)
02 Mar - 12:26:21 10° SSW 12:30:35 33° SE 12:34:47 10° ENE daylight
02 Mar - 14:08:44 10° W 14:12:01 19° NW 14:15:17 10° N daylight
03 Mar - 00:34:34 10° NNW 00:38:52 53° NE 00:43:11 10° SE night (unlit)
03 Mar - 02:19:21 10° WSW 02:20:19 11° SW 02:21:19 10° SW night (unlit)
03 Mar - 12:42:40 10° SW 12:47:22 88° WNW 12:52:02 10° NE daylight
03 Mar - 23:13:02 10° NNE 23:14:13 11° NE 23:15:24 10° ENE night (unlit)
04 Mar - 00:51:21 10° NW 00:55:38 51° SW 00:59:57 10° SSE night (unlit)
04 Mar - 11:19:17 10° S 11:22:42 20° SE 11:26:07 10° E daylight
04 Mar - 12:59:58 10° WSW 13:04:09 32° NW 13:08:17 10° NNE daylight
04 Mar - 23:27:13 10° N 23:31:03 29° NE 23:34:55 10° ESE night (unlit)
